This is the latest recevied weather packets stored in our database for station/object DL9SEC-13. If no packets are shown the sender has not sent any weather packets the latest 10 day(s).
| Time | Temp. | Humidity | Pressure | Rain* | Wind** | Luminosity | Snow |
|---|---|---|---|---|---|---|---|
| 1777560003 | 18.33° C | 22% | 1027.4 hPa | 0 mm | - | - | - |
| 1777559103 | 17.78° C | 22% | 1027.5 hPa | 0 mm | - | - | - |
| 1777558203 | 17.78° C | 23% | 1027.6 hPa | 0 mm | - | - | - |
| 1777557303 | 17.78° C | 23% | 1027.7 hPa | 0 mm | - | - | - |
| 1777556403 | 17.78° C | 22% | 1027.7 hPa | 0 mm | - | - | - |
| 1777555503 | 17.22° C | 22% | 1027.8 hPa | 0 mm | - | - | - |
| 1777554603 | 16.67° C | 22% | 1027.9 hPa | 0 mm | - | - | - |
| 1777553703 | 17.78° C | 21% | 1027.8 hPa | 0 mm | - | - | - |
| 1777552803 | 16.67° C | 22% | 1028 hPa | 0 mm | - | - | - |
| 1777551903 | 16.67° C | 24% | 1028.3 hPa | 0 mm | - | - | - |
| 1777551003 | 15.56° C | 23% | 1028.3 hPa | 0 mm | - | - | - |
| 1777550103 | 15.56° C | 23% | 1028.4 hPa | 0 mm | - | - | - |
| 1777549203 | 15° C | 23% | 1028.5 hPa | 0 mm | - | - | - |
| 1777548303 | 15° C | 24% | 1028.6 hPa | 0 mm | - | - | - |
| 1777547403 | 14.44° C | 25% | 1028.8 hPa | 0 mm | - | - | - |
| 1777546503 | 14.44° C | 24% | 1028.8 hPa | 0 mm | - | - | - |
| 1777545604 | 13.89° C | 26% | 1029 hPa | 0 mm | - | - | - |
| 1777544703 | 14.44° C | 25% | 1029.1 hPa | 0 mm | - | - | - |
| 1777543803 | 14.44° C | 26% | 1029.2 hPa | 0 mm | - | - | - |
| 1777542903 | 13.33° C | 31% | 1029.2 hPa | 0 mm | - | - | - |
| 1777542003 | 12.78° C | 29% | 1029.2 hPa | 0 mm | - | - | - |
| 1777541103 | 12.78° C | 31% | 1029.4 hPa | 0 mm | - | - | - |
| 1777540203 | 12.78° C | 30% | 1029.5 hPa | 0 mm | - | - | - |
| 1777539303 | 12.22° C | 30% | 1029.5 hPa | 0 mm | - | - | - |
| 1777538403 | 11.67° C | 32% | 1029.4 hPa | 0 mm | - | - | - |
* Rain latest hour (hover to see other rain measurements)
** Current wind speed in m/s (hover to see current wind gust speed)